Buckeye, AZ

8:55 AM MST on November 17, 2019 (GMT -0700)
Buckeye Municipal

Weather History for KBXK - May, 2019

Change the Weather History Date:

Thursday, May 9, 2019

  Actual Average (KGYR) Record (KGYR)
Temperature  
Mean Temperature 75 °F -  
Max Temperature 86 °F 91 °F 113 °F (2001)
Min Temperature 64 °F 62 °F 51 °F (2003)
Cooling Degree Days 10    
Growing Degree Days 25 (Base 50)    
Moisture  
Dew Point 43 °F    
Average Humidity 33    
Maximum Humidity 56    
Minimum Humidity 16    
Precipitation  
Precipitation 0.00 in - - ()
Sea Level Pressure  
Sea Level Pressure 29.74 in    
Wind  
Wind Speed 10 mph (SE)    
Max Wind Speed 17 mph    
Max Gust Speed 24 mph    
Visibility 10 miles    
Events      
Averages and records for this station are not official NWS values.
T = Trace of Precipitation, MM = Missing Value Source: NWS Daily Summary

Daily Weather History Graph

Daily Weather History Graph

Search for Another Location

Airport or City:

Astronomy

May. 09, 2019 Rise Set
Actual Time 5:35 AM MST 7:19 PM MST
Civil Twilight 5:08 AM MST 7:46 PM MST
Nautical Twilight 4:35 AM MST 8:19 PM MST
Astronomical Twilight 4:01 AM MST 8:53 PM MST
Moon 9:39 AM MST (5/9) No Moon Set
Length of Visible Light 14h 38m
Length of Day
13h 44m
Waxing Crescent, 26% of the Moon is Illuminated
May 9
Waxing Crescent
May 11
First Quarter
May 18
Full
May 26
Last Quarter
Jun 3
New

Hourly Weather History & Observations

Time (MST) Temp. Dew Point Humidity Pressure Visibility Wind Dir Wind Speed Gust Speed Precip Events Conditions
12:15 AM 69.8 °F 48.2 °F 46% 29.81 in 10.0 mi East 16.1 mph - N/A   Clear
12:35 AM 69.8 °F 48.2 °F 46% 29.81 in 10.0 mi East 12.7 mph - N/A   Clear
12:55 AM 69.8 °F 48.2 °F 46% 29.81 in 10.0 mi East 10.4 mph - N/A   Clear
1:15 AM 69.8 °F 46.4 °F 43% 29.80 in 10.0 mi East 11.5 mph - N/A   Clear
1:35 AM 68.0 °F 48.2 °F 49% 29.80 in 10.0 mi East 9.2 mph - N/A   Clear
1:55 AM 66.2 °F 48.2 °F 52% 29.79 in 10.0 mi East 8.1 mph - N/A   Clear
2:15 AM 68.0 °F 46.4 °F 46% 29.80 in 10.0 mi East 9.2 mph - N/A   Clear
2:35 AM 68.0 °F 46.4 °F 46% 29.80 in 10.0 mi East 15.0 mph - N/A   Clear
2:55 AM 68.0 °F 46.4 °F 46% 29.80 in 10.0 mi East 13.8 mph - N/A   Clear
3:15 AM 68.0 °F 46.4 °F 46% 29.79 in 10.0 mi East 11.5 mph - N/A   Clear
3:35 AM 68.0 °F 46.4 °F 46% 29.79 in 10.0 mi East 11.5 mph - N/A   Clear
3:55 AM 68.0 °F 46.4 °F 46% 29.78 in 10.0 mi East 11.5 mph - N/A   Clear
4:15 AM 68.0 °F 46.4 °F 46% 29.78 in 10.0 mi East 10.4 mph - N/A   Clear
4:35 AM 66.2 °F 46.4 °F 49% 29.79 in 10.0 mi ESE 4.6 mph - N/A   Clear
4:55 AM 64.4 °F 48.2 °F 56% 29.79 in 10.0 mi Calm Calm - N/A   Clear
5:15 AM 64.4 °F 46.4 °F 52% 29.78 in 10.0 mi East 6.9 mph - N/A   Clear
5:35 AM 66.2 °F 46.4 °F 49% 29.79 in 10.0 mi East 9.2 mph - N/A   Clear
5:55 AM 66.2 °F 46.4 °F 49% 29.79 in 10.0 mi ENE 8.1 mph - N/A   Clear
6:15 AM 68.0 °F 46.4 °F 46% 29.79 in 10.0 mi ENE 10.4 mph - N/A   Clear
6:35 AM 68.0 °F 46.4 °F 46% 29.79 in 10.0 mi East 10.4 mph - N/A   Clear
6:55 AM 69.8 °F 46.4 °F 43% 29.79 in 10.0 mi East 12.7 mph - N/A   Clear
7:15 AM 71.6 °F 46.4 °F 41% 29.79 in 10.0 mi East 13.8 mph - N/A   Clear
7:35 AM 71.6 °F 46.4 °F 41% 29.79 in 10.0 mi East 17.3 mph - N/A   Clear
7:55 AM 73.4 °F 46.4 °F 38% 29.80 in 10.0 mi East 16.1 mph 20.7 mph N/A   Clear
8:15 AM 73.4 °F 46.4 °F 38% 29.80 in 10.0 mi ESE 15.0 mph - N/A   Clear
8:35 AM 73.4 °F 46.4 °F 38% 29.79 in 10.0 mi East 16.1 mph - N/A   Clear
8:55 AM 75.2 °F 46.4 °F 36% 29.79 in 10.0 mi East 15.0 mph - N/A   Clear
9:15 AM 75.2 °F 48.2 °F 38% 29.79 in 10.0 mi ESE 12.7 mph - N/A   Clear
9:35 AM 75.2 °F 46.4 °F 36% 29.79 in 10.0 mi ESE 10.4 mph - N/A   Clear
9:55 AM 75.2 °F 46.4 °F 36% 29.80 in 10.0 mi ESE 9.2 mph - N/A   Clear
10:15 AM 77.0 °F 46.4 °F 34% 29.79 in 10.0 mi ESE 6.9 mph - N/A   Clear
10:35 AM 77.0 °F 46.4 °F 34% 29.79 in 10.0 mi SE 6.9 mph - N/A   Clear
10:55 AM 77.0 °F 46.4 °F 34% 29.78 in 10.0 mi Calm Calm - N/A   Clear
11:15 AM 78.8 °F 46.4 °F 32% 29.78 in 10.0 mi ESE 5.8 mph - N/A   Clear
11:35 AM 80.6 °F 46.4 °F 30% 29.77 in 10.0 mi South 4.6 mph - N/A   Clear
11:55 AM 80.6 °F 46.4 °F 30% 29.76 in 10.0 mi ESE 5.8 mph - N/A   Clear
12:15 PM 80.6 °F 44.6 °F 28% 29.75 in 10.0 mi SSE 6.9 mph - N/A   Clear
12:35 PM 82.4 °F 44.6 °F 26% 29.75 in 10.0 mi Calm Calm - N/A   Clear
12:55 PM 82.4 °F 41.0 °F 23% 29.73 in 10.0 mi WSW 9.2 mph - N/A   Clear
1:35 PM 84.2 °F 41.0 °F 22% 29.72 in 10.0 mi ESE 4.6 mph - N/A   Clear
1:55 PM 84.2 °F 41.0 °F 22% 29.71 in 10.0 mi Calm Calm - N/A   Clear
2:15 PM 84.2 °F 41.0 °F 22% 29.70 in 10.0 mi Calm Calm - N/A   Clear
2:35 PM 86.0 °F 37.4 °F 18% 29.69 in 10.0 mi South 6.9 mph - N/A   Clear
2:55 PM 86.0 °F 35.6 °F 17% 29.68 in 10.0 mi Calm Calm - N/A   Clear
3:15 PM 86.0 °F 35.6 °F 17% 29.67 in 10.0 mi SSW 9.2 mph 19.6 mph N/A   Clear
3:35 PM 84.2 °F 35.6 °F 18% 29.66 in 10.0 mi South 5.8 mph - N/A   Clear
3:55 PM 86.0 °F 35.6 °F 17% 29.65 in 10.0 mi South 9.2 mph - N/A   Clear
4:15 PM 86.0 °F 37.4 °F 18% 29.65 in 10.0 mi South 8.1 mph 16.1 mph N/A   Clear
4:35 PM 86.0 °F 37.4 °F 18% 29.65 in 10.0 mi South 9.2 mph - N/A   Clear
4:55 PM 86.0 °F 37.4 °F 18% 29.64 in 10.0 mi South 9.2 mph - N/A   Clear
5:15 PM 86.0 °F 39.2 °F 19% 29.64 in 10.0 mi South 8.1 mph - N/A   Clear
5:35 PM 84.2 °F 39.2 °F 20% 29.64 in 10.0 mi SSW 8.1 mph - N/A   Clear
5:55 PM 84.2 °F 37.4 °F 19% 29.64 in 10.0 mi SSW 6.9 mph - N/A   Clear
6:15 PM 82.4 °F 37.4 °F 20% 29.64 in 8.0 mi SW 9.2 mph - N/A   Clear
6:35 PM 82.4 °F 37.4 °F 20% 29.64 in 10.0 mi SW 8.1 mph - N/A   Clear
6:55 PM 82.4 °F 32.0 °F 16% 29.65 in 9.0 mi SW 17.3 mph 24.2 mph N/A   Clear
7:15 PM 80.6 °F 33.8 °F 18% 29.65 in 10.0 mi SW 15.0 mph 24.2 mph N/A   Clear
7:35 PM 78.8 °F 33.8 °F 20% 29.66 in 10.0 mi SW 9.2 mph - N/A   Clear
7:55 PM 77.0 °F 33.8 °F 21% 29.67 in 10.0 mi SW 10.4 mph 16.1 mph N/A   Scattered Clouds
8:15 PM 77.0 °F 35.6 °F 22% 29.67 in 10.0 mi SW 8.1 mph - N/A   Scattered Clouds
8:35 PM 75.2 °F 37.4 °F 25% 29.68 in 10.0 mi SW 8.1 mph - N/A   Scattered Clouds
8:55 PM 73.4 °F 39.2 °F 29% 29.69 in 10.0 mi SW 8.1 mph - N/A   Partly Cloudy
9:15 PM 75.2 °F 41.0 °F 29% 29.70 in 10.0 mi WSW 10.4 mph 16.1 mph N/A   Mostly Cloudy
9:35 PM 73.4 °F 41.0 °F 31% 29.70 in 10.0 mi WSW 9.2 mph - N/A   Mostly Cloudy
9:55 PM 73.4 °F 41.0 °F 31% 29.70 in 10.0 mi SW 10.4 mph - N/A   Mostly Cloudy
10:15 PM 71.6 °F 39.2 °F 31% 29.71 in 10.0 mi WSW 6.9 mph 18.4 mph N/A   Mostly Cloudy
10:35 PM 71.6 °F 39.2 °F 31% 29.72 in 10.0 mi NNE 3.5 mph - N/A   Overcast
10:55 PM 71.6 °F 39.2 °F 31% 29.72 in 10.0 mi West 3.5 mph - N/A   Overcast
11:15 PM 69.8 °F 39.2 °F 33% 29.73 in 10.0 mi Calm Calm - N/A   Overcast
11:35 PM 71.6 °F 39.2 °F 31% 29.73 in 10.0 mi Calm Calm - N/A   Mostly Cloudy
11:55 PM 69.8 °F 39.2 °F 33% 29.73 in 10.0 mi Calm Calm - N/A   Mostly Cloudy